Location: Bluejay Creek
(37.7819°N, 119.6118°W)
Time: 23:03:15
(UTC+00:00)

Thor Agena Rocket - Pass Details

Date: 05 August 2024
Orbit: 756 x 805 km, 99.1° (Epoch: 08 September)

Event Time Altitude Azimuth Distance (km) Brightness Sun altitude
Rises 12:02:01 0° 13° (NNE) 3,229 7.5 -12.0°
Reaches altitude 10° 12:04:20 10° 14° (NNE) 2,296 6.7 -11.7°
Maximum altitude 12:09:23 89° 102° (ESE) 762 3.5 -10.8°
Drops below altitude 10° 12:14:24 10° 195° (SSW) 2,275 5.5 -10.0°
Enters shadow 12:16:14 - 195° (SSW) 3,016 6.2 -9.7°
